This is the latest recevied weather packets stored in our database for station/object N4BBA. If no packets are shown the sender has not sent any weather packets the latest 1 day(s).
| Time | Temp. | Humidity | Pressure | Rain* | Wind** | Luminosity | Snow |
|---|---|---|---|---|---|---|---|
| 1778040425 | 18.33° C | 77% | 1015.4 hPa | 0 mm | 0.45 m/s, 149° | 0 W/m² | - |
| 1778040121 | 18.33° C | 77% | 1015.5 hPa | 0 mm | 0.89 m/s, 193° | 0 W/m² | - |
| 1778039818 | 18.33° C | 77% | 1015.5 hPa | 0 mm | 0.45 m/s, 185° | 0 W/m² | - |
| 1778039515 | 18.33° C | 77% | 1015.4 hPa | 0 mm | 1.79 m/s, 146° | 0 W/m² | - |
| 1778039212 | 18.33° C | 76% | 1015.9 hPa | 0 mm | 1.79 m/s, 122° | 0 W/m² | - |
| 1778038909 | 18.33° C | 76% | 1015.4 hPa | 0 mm | 0.89 m/s, 138° | 0 W/m² | - |
| 1778038606 | 18.33° C | 76% | 1015.5 hPa | 0 mm | 1.79 m/s, 170° | 0 W/m² | - |
| 1778038303 | 18.33° C | 76% | 1015.8 hPa | 0 mm | 1.79 m/s, 190° | 0 W/m² | - |
| 1778038000 | 18.89° C | 76% | 1015.6 hPa | 0 mm | 0.45 m/s, 127° | 0 W/m² | - |
| 1778037697 | 18.89° C | 75% | 1015.6 hPa | 0 mm | 1.34 m/s, 191° | 0 W/m² | - |
| 1778037394 | 18.89° C | 75% | 1015.9 hPa | 0 mm | 0.89 m/s, 184° | 0 W/m² | - |
| 1778037091 | 18.89° C | 75% | 1015.9 hPa | 0 mm | 1.34 m/s, 208° | 0 W/m² | - |
| 1778036790 | 18.89° C | 74% | 1015.9 hPa | 0 mm | 0.89 m/s, 167° | 0 W/m² | - |
| 1778036486 | 18.89° C | 74% | 1016 hPa | 0 mm | 0.89 m/s, 180° | 0 W/m² | - |
| 1778036183 | 18.89° C | 73% | 1016 hPa | 0 mm | 1.34 m/s, 211° | 0 W/m² | - |
| 1778035879 | 18.89° C | 73% | 1016 hPa | 0 mm | 0.45 m/s, 185° | 0 W/m² | - |
| 1778035577 | 18.89° C | 72% | 1015.9 hPa | 0 mm | 1.79 m/s, 128° | 0 W/m² | - |
| 1778035273 | 18.89° C | 72% | 1015.8 hPa | 0 mm | 4.02 m/s, 134° | 0 W/m² | - |
| 1778034969 | 19.44° C | 71% | 1015.9 hPa | 0 mm | 1.79 m/s, 175° | 0 W/m² | - |
| 1778034667 | 19.44° C | 71% | 1015.6 hPa | 0 mm | 1.79 m/s, 169° | 0 W/m² | - |
| 1778034364 | 19.44° C | 70% | 1015.8 hPa | 0 mm | 2.24 m/s, 211° | 0 W/m² | - |
| 1778034061 | 19.44° C | 70% | 1015.8 hPa | 0 mm | 1.79 m/s, 124° | 0 W/m² | - |
| 1778033759 | 20° C | 69% | 1015.5 hPa | 0 mm | 2.68 m/s, 152° | 0 W/m² | - |
| 1778033456 | 20° C | 68% | 1015.5 hPa | 0 mm | 1.34 m/s, 198° | 0 W/m² | - |
| 1778033153 | 20° C | 68% | 1015.4 hPa | 0 mm | 1.79 m/s, 195° | 0 W/m² | - |
* Rain latest hour (hover to see other rain measurements)
** Current wind speed in m/s (hover to see current wind gust speed)